Location: Azul
(36.7830°S, 59.8500°W)
Time: 10:39:27
(UTC-03:00)

CAS-6 - Visible Passes

Search period start: 22 October 2021 00:00
Search period end: 01 November 2021 00:00
Orbit: 615 x 634 km, 97.9° (Epoch: 22 October)

Date Brightness Start Highest point End Pass type
(mag) Time Alt. Az. Time Alt. Az. Time Alt. Az.
26 Oct ? 00:35:57 10° S 00:36:00 10° S 00:36:00 10° S visible
28 Oct ? 23:55:34 10° SSE 23:55:39 10° SSE 23:55:39 10° SSE visible
30 Oct ? 00:14:13 10° S 00:14:37 12° S 00:14:37 12° S visible
31 Oct ? 00:33:02 10° S 00:33:36 13° S 00:33:36 13° S visible
